Date,TemperatureHighF,TemperatureAvgF,TemperatureLowF,DewpointHighF,DewpointAvgF,DewpointLowF,HumidityHigh,HumidityAvg,HumidityLow,PressureMaxIn,PressureMinIn,WindSpeedMaxMPH,WindSpeedAvgMPH,GustSpeedMaxMPH,PrecipitationSumIn
2014-1-1,1.4,-3.8,-9.6,-8.9,-11.2,-15.0,77,70,58,30.47,30.38,5,2,9,0.00
2014-1-2,1.9,-6.4,-12.6,-10.1,-13.6,-16.8,81,71,54,30.49,30.30,5,1,7,0.00
2014-1-3,31.3,11.0,-9.8,29.8,7.0,-14.5,94,84,74,30.30,29.37,12,6,22,0.00
2014-1-4,34.7,12.1,-5.2,32.1,5.6,-11.2,94,75,59,30.26,29.40,12,6,25,0.00
2014-1-5,-5.5,-11.5,-19.9,-11.1,-17.9,-26.4,80,73,65,30.37,30.26,14,4,19,0.00
2014-1-6,-13.5,-17.4,-21.2,-18.9,-23.4,-27.3,80,73,67,30.30,30.12,13,5,23,0.00
2014-1-7,4.1,-4.0,-14.4,-4.0,-10.0,-18.8,80,75,65,30.25,30.07,8,3,12,0.00
2014-1-8,3.5,-5.5,-11.2,-5.6,-11.0,-15.5,83,77,64,30.44,30.25,4,1,7,0.00
2014-1-9,20.5,11.6,-3.9,17.2,7.1,-8.0,91,82,76,30.35,29.84,9,4,21,0.00
2014-1-10,29.9,25.2,19.2,29.2,24.0,16.8,97,95,90,29.84,29.52,8,3,18,0.00
2014-1-11,29.8,26.1,21.8,28.8,23.9,20.2,96,91,81,29.68,29.50,10,4,17,0.00
2014-1-12,42.2,34.0,24.1,34.3,29.3,22.1,93,83,73,29.60,29.34,7,3,12,0.05
2014-1-13,33.3,26.3,22.1,29.3,21.3,16.8,90,81,71,29.70,29.54,13,4,20,0.00
2014-1-14,24.2,17.1,6.5,21.9,12.7,1.2,93,83,69,30.16,29.53,11,6,21,0.00
2014-1-15,34.6,13.6,4.3,29.6,9.4,0.8,91,83,77,30.16,29.40,13,5,22,0.00
2014-1-16,35.6,16.8,5.9,32.6,11.1,-0.4,92,78,65,29.95,29.38,18,9,30,0.00
2014-1-17,13.3,5.0,-2.6,6.5,-0.8,-7.0,86,77,62,30.07,29.71,10,3,18,0.00
2014-1-18,22.7,16.1,10.0,19.4,12.0,6.9,91,84,70,29.97,29.54,10,4,18,0.00
2014-1-19,37.6,31.0,22.1,29.8,26.2,19.6,90,82,72,29.74,29.48,12,5,23,0.13
2014-1-20,28.9,11.5,-7.0,25.6,4.5,-14.8,89,73,57,30.47,29.74,13,6,21,0.00
2014-1-21,2.2,-6.8,-16.2,-1.4,-12.0,-21.2,85,78,66,30.46,29.97,8,2,12,0.00
2014-1-22,6.8,0.7,-11.8,2.7,-5.4,-17.5,86,75,64,30.51,29.97,15,7,25,0.00
2014-1-23,7.1,-8.0,-17.0,0.0,-13.5,-21.6,84,76,68,30.69,30.06,10,4,20,0.00
2014-1-24,33.6,25.3,7.2,31.5,19.7,-0.2,94,79,47,30.05,29.51,15,7,24,0.00
2014-1-25,17.0,5.8,0.8,2.4,-4.3,-7.9,86,63,45,29.95,29.50,17,5,23,0.00
2014-1-26,14.8,4.0,-10.0,10.8,-1.3,-17.2,90,78,69,30.11,29.41,20,8,34,0.00
2014-1-27,-6.5,-11.5,-15.8,-15.3,-18.6,-22.4,79,70,63,30.38,30.11,13,6,24,0.00
2014-1-28,-0.6,-7.5,-15.6,-8.6,-13.7,-20.0,81,74,64,30.33,30.04,14,4,21,0.00
2014-1-29,29.3,13.0,-3.6,19.7,5.2,-9.1,80,71,57,30.04,29.58,11,4,20,0.00
2014-1-30,21.7,9.8,-6.5,16.1,5.0,-11.1,90,80,72,30.04,29.53,12,5,20,0.00
2014-1-31,3.9,-3.0,-9.4,-3.2,-8.3,-14.0,86,78,65,30.09,29.95,7,3,14,0.00
2014-2-1,14.8,4.7,-5.9,6.7,-1.6,-11.0,86,75,63,30.21,29.88,10,4,20,0.00
2014-2-2,10.9,-1.6,-12.4,1.1,-6.7,-15.9,88,79,63,30.25,30.14,8,2,16,0.00
2014-2-3,12.8,4.0,-4.4,2.2,-2.1,-8.3,89,76,59,30.35,30.13,8,2,15,0.00
2014-2-4,5.8,-0.6,-6.7,-0.2,-8.6,-13.5,83,69,56,30.49,30.35,8,3,16,0.00
2014-2-5,0.2,-5.0,-10.0,-6.7,-11.4,-15.5,82,74,64,30.53,30.45,9,4,16,0.00
2014-2-6,0.2,-7.0,-15.2,-7.4,-12.0,-18.9,84,78,67,30.46,30.16,10,4,20,0.00
2014-2-7,8.4,-2.4,-10.4,-5.7,-10.3,-15.8,85,70,49,30.16,30.09,8,4,16,0.00
2014-2-8,13.6,0.8,-12.7,4.5,-4.1,-17.2,87,80,66,30.19,30.07,6,1,8,0.00
2014-2-9,1.5,-5.1,-12.2,-6.1,-11.6,-17.4,80,73,62,30.39,30.19,12,4,18,0.00
2014-2-10,1.2,-8.0,-15.3,-8.9,-14.5,-19.7,81,73,60,30.46,30.39,6,2,10,0.00
2014-2-11,10.6,-1.9,-19.5,7.7,-6.9,-24.1,89,79,67,30.42,29.99,9,4,21,0.00
2014-2-12,17.9,12.1,7.7,10.9,6.5,2.5,92,79,54,30.12,29.73,8,2,16,0.00
2014-2-13,23.8,10.9,-2.4,21.3,6.5,-6.9,93,82,69,29.79,29.42,20,7,29,0.00
2014-2-14,10.9,0.8,-5.5,1.1,-5.2,-9.1,84,76,62,30.03,29.79,8,4,13,0.00
2014-2-15,16.4,7.3,-7.5,10.7,2.5,-11.4,86,80,73,30.09,29.77,7,2,14,0.00
2014-2-16,15.9,9.9,1.9,10.5,4.1,-0.9,89,78,64,30.23,29.90,8,2,20,0.00
2014-2-17,26.7,19.3,15.3,20.7,15.9,10.6,94,87,77,29.90,29.69,9,3,23,0.02
2014-2-18,39.5,27.0,17.9,26.0,20.4,14.6,93,77,55,29.80,29.55,10,4,17,0.27
2014-2-19,35.9,27.9,18.1,27.0,22.5,15.8,93,80,64,29.83,29.63,8,4,17,0.03
2014-2-20,32.5,24.4,7.0,27.9,21.7,4.7,96,90,78,29.64,29.44,13,4,26,0.11
2014-2-21,7.5,3.9,-0.8,4.5,0.6,-4.0,90,86,83,29.79,29.42,17,10,30,0.00
2014-2-22,9.4,2.9,-2.8,0.9,-2.7,-7.0,83,77,67,30.13,29.79,14,8,23,0.00
2014-2-23,10.5,3.3,-3.0,2.0,-2.6,-7.2,82,76,67,30.27,30.13,14,8,24,0.00
2014-2-24,7.2,-0.1,-8.4,-0.7,-6.3,-12.7,84,75,61,30.34,30.26,8,4,18,0.00
2014-2-25,1.6,-6.4,-11.9,-8.7,-13.5,-18.7,83,71,59,30.35,30.26,15,6,25,0.00
2014-2-26,13.5,-1.8,-13.8,4.2,-9.3,-20.3,81,70,54,30.32,29.65,16,8,32,0.00
2014-2-27,-3.7,-12.2,-19.4,-17.6,-23.8,-28.8,67,56,45,30.19,29.97,9,2,22,0.00
2014-2-28,10.3,-1.6,-12.9,2.5,-9.5,-21.1,74,69,62,30.21,29.87,10,4,18,0.00
2014-3-1,-5.1,-9.8,-17.0,-11.9,-19.5,-25.6,75,62,50,30.52,30.22,12,6,17,0.00
2014-3-2,0.0,-9.9,-19.8,-11.3,-18.6,-26.4,75,65,54,30.53,30.47,10,4,16,0.00
2014-3-3,4.2,-3.9,-16.7,-2.0,-11.1,-21.8,81,71,58,30.51,30.21,6,1,14,0.00
2014-3-4,14.2,7.2,2.2,3.9,0.9,-2.3,86,75,63,30.31,30.16,7,1,13,0.00
2014-3-5,21.2,11.8,3.7,10.0,4.0,-2.8,83,71,59,30.43,30.27,8,2,16,0.00
2014-3-6,22.4,17.4,10.9,19.8,14.4,6.4,94,88,81,30.27,29.77,16,6,25,0.00
2014-3-7,26.1,21.4,13.6,24.8,16.9,8.0,95,83,72,30.24,29.77,10,4,22,0.00
2014-3-8,24.2,15.0,5.5,12.9,8.3,2.2,87,75,55,30.34,30.11,7,2,12,0.01
2014-3-9,41.8,30.4,11.2,32.6,23.6,8.1,88,76,62,30.10,29.67,12,5,18,0.02
2014-3-10,45.6,40.0,36.1,33.9,32.0,29.4,81,73,60,29.76,29.63,14,5,20,0.00
2014-3-11,39.0,33.3,21.3,29.5,23.9,14.0,82,69,49,30.10,29.75,12,4,23,0.00
2014-3-12,22.9,17.4,9.6,14.5,8.4,2.5,79,68,49,30.17,29.99,9,2,17,0.00
2014-3-13,47.6,35.3,19.9,37.7,28.5,14.5,95,77,58,29.99,29.56,9,4,16,0.00
2014-3-14,41.0,30.8,18.5,33.0,23.5,11.2,87,75,59,30.00,29.56,18,7,30,0.00
2014-3-15,25.7,18.2,11.6,12.0,8.4,1.8,85,66,45,30.44,30.00,8,2,14,0.00
2014-3-16,20.6,13.5,2.5,13.9,2.6,-4.1,78,62,45,30.49,29.93,8,2,18,0.00
2014-3-17,35.0,26.7,19.5,25.1,20.9,13.9,85,79,67,29.93,29.57,10,4,22,0.00
2014-3-18,27.8,24.1,22.2,23.8,21.7,19.7,94,90,80,29.89,29.66,8,3,13,0.00
2014-3-19,33.5,26.7,22.1,25.1,21.2,19.1,91,80,64,30.00,29.87,12,3,20,0.23
2014-3-20,39.7,29.5,19.0,28.7,24.3,17.8,96,82,59,30.02,29.87,6,2,12,0.13
2014-3-21,35.0,27.3,8.4,30.4,22.4,3.0,91,82,72,30.24,29.74,15,6,27,0.01
2014-3-22,15.1,8.0,1.6,5.5,0.0,-5.2,78,69,61,30.51,30.24,12,6,20,0.00
2014-3-23,21.4,11.5,2.1,9.0,3.3,-2.3,84,70,55,30.51,30.34,9,2,16,0.00
2014-3-24,24.8,16.9,7.2,16.3,8.8,1.7,89,71,45,30.35,30.12,14,4,23,0.03
2014-3-25,20.1,11.5,4.4,5.5,1.1,-4.6,78,63,52,30.30,30.14,10,4,22,0.00
2014-3-26,36.5,22.4,5.3,25.1,13.5,-0.1,82,69,51,30.14,29.54,10,3,23,0.00
2014-3-27,34.3,29.9,25.5,33.8,27.8,21.8,100,92,72,29.84,29.51,8,3,16,0.84
2014-3-28,28.9,22.1,13.1,21.5,12.9,8.0,86,69,47,30.27,29.84,6,2,13,1.86
2014-3-29,36.3,25.6,8.6,26.6,14.9,5.0,86,65,42,30.28,30.00,8,3,15,1.80
2014-3-30,50.3,39.4,31.2,38.5,31.6,26.5,85,74,59,29.99,29.80,9,3,17,1.68
2014-3-31,40.8,37.6,35.5,36.1,33.0,30.5,90,84,77,29.80,29.38,8,2,18,0.65
2014-4-1,31.3,20.0,13.2,29.5,14.6,10.0,93,80,68,30.14,29.45,16,7,29,0.65
2014-4-2,34.4,23.7,10.5,20.6,14.8,7.4,87,70,56,30.22,30.10,7,2,12,0.00
2014-4-3,31.0,27.7,22.5,26.5,23.2,19.4,94,84,63,30.11,29.88,8,4,15,0.01
2014-4-4,37.9,29.0,22.0,26.1,22.4,19.9,94,77,56,30.07,29.83,11,6,20,0.27
2014-4-5,42.5,31.7,18.3,33.5,26.9,16.8,95,83,65,30.08,29.92,10,3,20,0.00
2014-4-6,57.1,43.1,30.5,40.2,33.0,26.9,87,69,48,29.92,29.83,8,2,15,0.00
2014-4-7,54.6,45.0,37.0,38.7,33.3,24.3,87,65,32,29.90,29.81,11,4,17,0.00
2014-4-8,48.3,37.7,29.4,29.4,25.9,23.0,86,64,40,30.05,29.90,11,5,18,0.00
2014-4-9,65.2,47.8,30.7,46.2,34.0,23.8,78,60,47,29.98,29.50,10,5,25,0.00
2014-4-10,53.9,45.9,36.0,38.1,25.5,15.6,71,47,23,29.96,29.60,14,6,27,0.00
2014-4-11,58.9,46.8,35.6,38.6,29.9,24.3,91,55,29,29.99,29.92,10,2,15,0.01
2014-4-12,50.9,44.1,37.5,40.7,36.4,28.1,92,75,49,29.96,29.76,8,3,17,0.07
2014-4-13,37.6,33.0,26.8,33.9,25.8,16.6,91,76,56,30.04,29.80,12,6,25,0.00
2014-4-14,30.7,24.2,17.2,17.0,8.7,2.8,71,53,31,30.16,30.03,14,8,26,0.00
2014-4-15,33.6,22.2,10.5,10.8,5.6,2.5,79,51,29,30.19,30.04,8,2,16,0.00
2014-4-16,28.0,24.2,22.3,23.5,20.8,7.2,96,88,41,30.11,29.95,10,5,21,1.00
2014-4-17,38.0,28.0,19.9,31.2,22.0,17.9,94,80,52,30.32,30.11,9,3,17,0.36
2014-4-18,41.8,33.0,22.3,28.2,23.8,18.8,88,70,52,30.37,30.14,7,2,17,0.00
2014-4-19,59.8,45.2,35.5,46.6,35.2,25.6,84,69,46,30.14,30.00,10,4,26,0.04
2014-4-20,70.4,53.8,38.5,39.0,34.7,31.3,87,53,25,30.09,29.97,6,1,10,0.00
2014-4-21,57.3,50.8,39.2,38.8,32.2,25.7,65,49,40,30.14,29.92,14,5,25,0.00
2014-4-22,56.9,43.6,30.5,32.3,28.2,24.9,85,57,35,30.19,30.06,8,2,16,0.00
2014-4-23,40.9,36.8,34.6,35.1,30.1,23.5,96,79,54,30.10,29.90,6,2,17,0.96
2014-4-24,39.4,36.3,32.5,36.2,34.5,31.7,97,93,88,29.92,29.74,6,1,12,0.63
2014-4-25,57.2,43.6,33.5,41.6,35.7,28.6,97,76,50,29.98,29.74,13,4,21,0.00
2014-4-26,51.3,39.5,29.0,35.4,29.4,26.2,90,69,43,30.05,29.90,10,2,20,0.20
2014-4-27,40.8,37.1,32.1,38.9,35.0,30.5,96,92,86,29.94,29.68,9,4,20,5.07
2014-4-28,42.8,40.8,39.6,40.6,38.8,35.4,96,93,82,29.78,29.66,12,5,23,1.70
2014-4-29,47.3,41.0,36.8,38.7,34.6,32.0,92,78,58,29.87,29.76,14,7,26,0.09
2014-4-30,45.0,40.5,37.1,41.6,37.8,34.9,94,90,84,29.86,29.83,10,5,18,0.06
2014-5-1,49.6,43.2,38.0,41.7,38.6,36.2,94,84,71,29.89,29.80,11,5,18,0.10
2014-5-2,60.1,50.7,41.6,45.8,39.5,34.8,86,67,42,29.87,29.63,12,4,21,0.00
2014-5-3,56.5,49.5,41.9,41.1,35.5,31.4,79,60,39,30.03,29.77,14,6,26,0.00
2014-5-4,58.9,46.9,33.1,31.9,29.4,25.8,85,54,29,30.16,30.01,8,2,12,0.00
2014-5-5,66.9,54.8,46.1,40.2,36.3,31.8,70,51,32,30.06,29.94,7,2,14,0.00
2014-5-6,65.8,55.1,42.8,43.7,39.6,36.2,85,58,36,30.03,29.81,10,2,20,0.00
2014-5-7,66.8,57.4,49.3,54.8,45.1,38.9,93,64,50,29.87,29.71,8,3,17,0.15
2014-5-8,57.7,52.4,47.8,54.6,50.7,46.4,97,94,87,29.83,29.55,10,2,15,1.02
2014-5-9,57.1,50.7,45.4,51.9,44.4,38.4,97,81,51,29.84,29.52,14,6,22,0.02
2014-5-10,70.2,55.6,41.4,56.6,44.6,34.6,93,70,35,29.90,29.78,9,2,16,0.05
2014-5-11,67.9,59.4,50.1,55.4,51.9,49.2,97,78,56,29.93,29.82,6,2,12,0.30
2014-5-12,55.9,49.4,47.4,54.4,47.9,44.3,97,95,89,29.87,29.76,12,4,18,0.24
2014-5-13,52.9,46.9,43.2,44.2,39.8,35.8,89,77,57,30.21,29.87,15,7,25,0.00
2014-5-14,57.1,46.6,38.7,37.8,33.6,29.1,85,63,35,30.27,30.21,12,4,18,0.00
2014-5-15,47.5,42.8,38.0,34.2,31.9,28.0,82,66,52,30.26,30.16,9,3,15,0.00
2014-5-16,57.2,47.7,39.2,36.6,29.0,21.2,72,51,26,30.16,30.08,9,2,15,0.00
2014-5-17,68.9,56.9,44.1,41.2,32.8,27.9,68,42,25,30.08,30.00,12,3,17,0.00
2014-5-18,73.1,63.4,52.4,46.2,39.6,34.3,63,42,27,30.08,29.96,11,4,17,0.00
2014-5-19,62.0,55.2,51.2,53.7,49.5,41.0,100,84,46,29.99,29.78,8,4,16,1.27
2014-5-20,79.4,65.6,53.7,60.7,54.6,50.6,100,72,37,29.92,29.79,8,2,12,0.01
2014-5-21,64.7,58.0,52.8,51.7,46.9,44.8,80,67,53,30.19,29.92,10,5,20,0.00
2014-5-22,73.4,59.7,44.6,49.7,44.6,40.9,90,61,34,30.25,30.18,6,2,11,0.00
2014-5-23,80.2,66.0,48.8,50.3,47.6,43.8,89,55,31,30.27,30.13,7,2,14,0.00
2014-5-24,83.6,72.4,62.3,54.9,50.5,47.0,65,47,31,30.16,30.05,9,3,14,0.00
2014-5-25,79.8,70.0,59.8,64.1,57.4,48.4,83,65,51,30.08,29.92,7,2,16,0.00
2014-5-26,86.3,69.8,64.4,66.5,64.1,61.8,100,84,49,29.95,29.90,13,1,20,0.68
2014-5-27,78.0,68.4,62.7,68.9,64.3,60.0,100,88,64,30.05,29.93,5,1,10,0.08
2014-5-28,83.5,69.8,55.3,60.1,53.5,47.8,92,60,36,30.13,30.05,5,1,12,0.00
2014-5-29,86.2,71.8,55.2,57.1,51.9,47.0,81,53,27,30.16,30.08,8,2,15,0.00
2014-5-30,89.5,76.0,62.4,69.3,62.3,52.4,94,64,47,30.16,30.03,7,2,19,0.14
2014-5-31,76.1,69.2,65.8,72.2,67.3,64.6,100,94,84,30.11,29.92,8,1,13,1.59
2014-6-1,79.7,70.2,65.3,70.3,66.8,63.8,100,90,68,29.92,29.76,8,3,15,0.06
2014-6-2,76.9,67.0,58.9,67.7,61.1,50.8,100,82,65,29.92,29.72,16,5,26,0.17
2014-6-3,77.3,66.3,55.2,59.5,54.6,51.2,94,69,43,30.01,29.88,8,3,12,0.00
2014-6-4,81.6,69.6,57.7,60.2,55.9,51.1,93,65,37,29.96,29.89,4,1,8,0.00
2014-6-5,72.9,65.1,60.3,63.9,60.6,56.1,95,86,68,29.95,29.87,13,2,23,0.11
2014-6-6,82.3,69.5,59.8,66.4,60.3,52.9,100,75,48,30.03,29.91,8,2,15,0.01
2014-6-7,69.6,59.9,52.4,54.3,51.0,47.4,95,74,46,30.12,30.00,10,4,18,0.46
2014-6-8,73.3,63.0,49.8,52.9,46.3,39.3,92,58,32,30.17,30.08,5,1,10,0.00
2014-6-9,75.1,64.7,57.7,54.7,50.6,45.3,86,63,36,30.10,30.00,4,1,7,0.00
2014-6-10,80.7,67.4,52.7,57.8,54.8,51.3,96,67,40,30.02,29.89,7,1,15,0.00
2014-6-11,81.4,69.3,60.2,64.8,59.8,53.5,97,73,53,29.92,29.68,7,2,14,0.71
2014-6-12,65.9,58.7,54.0,63.4,49.1,42.4,97,72,45,30.03,29.68,16,7,25,0.00
2014-6-13,76.4,65.2,51.7,56.0,49.5,43.7,85,59,35,30.07,29.89,6,1,10,0.02
2014-6-14,67.1,60.5,55.8,60.6,56.8,52.8,97,88,76,29.96,29.73,9,3,16,2.26
2014-6-15,74.4,64.5,57.8,61.7,57.5,54.2,100,80,53,29.84,29.52,14,4,26,0.54
2014-6-16,78.0,67.1,58.1,68.3,60.0,54.9,92,79,59,29.92,29.60,10,2,22,0.11
2014-6-17,82.8,72.1,61.7,68.9,64.0,57.5,88,76,59,29.92,29.76,6,1,9,0.00
2014-6-18,79.8,71.2,64.1,69.1,64.6,59.2,90,80,69,29.97,29.84,9,3,17,0.00
2014-6-19,78.4,69.0,62.2,69.5,65.8,59.4,100,90,71,30.00,29.87,12,3,22,0.90
2014-6-20,84.9,72.5,61.1,69.6,65.0,61.1,100,80,48,30.00,29.87,6,1,10,0.01
2014-6-21,86.2,73.6,60.3,67.9,63.8,59.5,100,74,48,29.97,29.89,6,1,13,0.00
2014-6-22,78.8,71.2,65.9,68.8,65.6,62.0,96,83,67,29.96,29.85,6,1,10,0.01
2014-6-23,82.3,72.7,63.0,66.4,61.9,58.5,100,71,47,29.93,29.85,9,2,12,0.01
2014-6-24,82.5,72.5,61.5,64.5,61.9,58.5,92,71,46,30.03,29.92,8,2,13,0.00
2014-6-25,69.6,59.9,53.1,60.9,56.0,51.6,96,87,73,30.12,30.03,6,2,12,0.00
2014-6-26,85.0,67.8,54.4,70.9,62.1,51.6,96,83,60,30.09,29.89,8,1,20,0.04
2014-6-27,82.6,72.5,66.6,73.7,69.1,65.8,100,89,69,29.92,29.75,9,3,18,0.34
2014-6-28,82.2,74.8,70.4,75.2,70.8,62.7,93,88,73,29.79,29.66,10,4,16,0.04
2014-6-29,85.2,74.6,64.6,65.9,59.7,51.9,92,64,33,29.75,29.68,15,5,26,0.00
2014-6-30,81.5,73.3,66.0,60.7,56.0,51.0,81,56,37,29.72,29.55,12,5,21,0.00
2014-7-1,70.7,63.0,56.5,62.3,56.9,50.8,91,81,64,29.92,29.55,14,6,21,0.03
2014-7-2,75.3,64.8,54.4,53.0,49.8,46.1,91,62,36,30.15,29.92,10,4,18,0.01
2014-7-3,80.3,68.8,59.8,58.4,51.2,45.3,88,56,33,30.24,30.15,6,1,15,0.00
2014-7-4,79.9,68.7,56.8,63.3,58.6,52.3,94,71,53,30.27,30.08,8,3,17,0.00
2014-7-5,87.6,76.6,67.4,71.4,66.9,62.3,86,73,54,30.10,29.86,10,4,20,0.00
2014-7-6,86.6,77.0,67.3,73.7,67.2,61.0,96,74,47,29.91,29.75,14,5,20,0.11
2014-7-7,82.9,71.1,62.7,70.5,63.3,58.1,96,77,55,29.83,29.72,10,2,18,0.32
2014-7-8,74.8,66.9,60.0,60.6,56.6,52.4,89,71,48,29.97,29.72,13,6,22,0.00
2014-7-9,81.3,69.3,59.0,60.4,56.0,53.3,87,65,41,30.05,29.97,7,1,12,0.00
2014-7-10,85.2,72.3,57.1,68.2,61.9,54.6,96,72,50,30.07,29.94,7,2,13,0.00
2014-7-11,83.0,73.3,67.1,74.4,68.9,63.1,97,86,72,30.04,29.89,9,3,23,0.26
2014-7-12,76.7,71.2,66.8,71.4,65.1,62.4,95,82,63,30.06,29.95,9,2,14,0.02
2014-7-13,77.3,68.4,56.9,63.1,52.9,46.5,90,61,36,30.03,29.93,13,4,20,0.00
2014-7-14,64.3,60.1,56.5,53.0,50.4,46.3,83,70,62,30.13,29.93,15,6,27,0.00
2014-7-15,72.9,63.0,54.1,54.0,51.6,49.5,86,68,47,30.15,30.07,10,3,17,0.00
2014-7-16,78.3,66.6,55.2,58.8,54.0,51.4,88,66,40,30.12,30.04,6,1,8,0.00
2014-7-17,81.7,69.6,57.3,60.8,57.0,52.7,94,67,41,30.07,30.01,6,1,10,0.00
2014-7-18,80.4,71.5,62.5,65.1,60.7,56.6,81,69,53,30.04,29.93,9,3,18,0.00
2014-7-19,78.4,71.6,66.8,68.8,64.8,61.3,92,80,68,29.94,29.90,8,3,14,0.00
2014-7-20,87.7,76.4,65.7,73.5,69.4,64.4,96,80,61,29.90,29.82,8,2,21,0.00
2014-7-21,92.0,81.1,71.5,78.8,74.2,69.9,95,80,63,29.93,29.80,8,3,15,0.00
2014-7-22,83.4,74.0,65.0,76.2,62.0,56.2,91,69,41,30.23,29.83,13,5,21,0.00
2014-7-23,82.0,70.6,59.6,60.0,56.5,53.6,86,64,40,30.31,30.20,7,2,12,0.00
2014-7-24,80.3,68.7,58.3,65.9,60.3,55.7,94,76,43,30.20,29.76,10,2,18,0.02
2014-7-25,81.8,71.3,62.8,71.6,66.9,60.3,97,87,69,29.91,29.68,9,2,16,0.32
2014-7-26,86.8,75.4,64.3,70.4,63.7,57.3,96,69,44,29.89,29.81,14,3,20,0.01
2014-7-27,76.2,67.7,62.7,64.9,60.4,57.1,94,78,58,30.18,29.83,13,5,21,0.26
2014-7-28,76.7,68.1,61.9,61.9,58.5,53.6,93,73,47,30.26,30.18,7,2,12,0.00
2014-7-29,80.1,69.1,57.8,60.5,57.1,54.3,88,68,45,30.20,30.10,9,2,14,0.00
2014-7-30,82.1,71.1,61.7,61.0,57.7,55.0,83,65,41,30.15,30.08,9,2,13,0.00
2014-7-31,84.9,72.2,60.3,65.4,59.6,56.0,86,67,41,30.09,30.03,5,1,9,0.00
2014-8-1,87.6,72.2,63.0,70.4,64.1,59.8,96,78,44,30.12,30.05,4,0,12,0.23
2014-8-2,88.0,71.5,62.4,69.6,64.8,60.9,97,82,42,30.16,30.11,6,1,14,0.05
2014-8-3,86.9,73.9,64.4,69.1,65.5,61.9,96,77,49,30.16,30.08,5,1,10,0.00
2014-8-4,79.5,70.6,63.5,65.3,58.8,53.5,88,68,42,30.15,30.09,7,2,13,0.00
2014-8-5,82.0,68.9,57.6,62.1,58.7,55.7,94,72,44,30.19,30.13,6,1,12,0.00
2014-8-6,83.0,71.4,59.2,65.8,61.5,57.5,95,73,51,30.15,30.07,5,1,8,0.00
2014-8-7,84.6,71.9,59.5,65.8,61.4,57.3,94,72,40,30.13,30.05,7,1,12,0.00
2014-8-8,84.8,72.7,62.7,66.0,63.3,60.0,92,74,50,30.13,30.07,8,1,12,0.00
2014-8-9,84.2,72.0,65.2,66.4,62.0,57.8,89,72,44,30.15,30.08,8,1,14,0.00
2014-8-10,73.0,68.7,66.2,71.7,66.6,61.8,97,93,76,30.09,30.01,7,1,12,1.50
2014-8-11,78.4,68.9,62.1,66.4,58.4,53.0,96,72,43,30.12,30.03,12,4,20,0.00
2014-8-12,80.3,68.7,56.7,60.4,55.9,52.6,86,66,44,30.15,30.05,9,2,15,0.00
2014-8-13,84.1,72.1,62.6,64.9,60.1,55.9,84,67,45,30.14,30.06,6,2,9,0.00
2014-8-14,81.8,69.8,59.6,64.4,59.7,56.2,90,72,50,30.16,30.02,7,1,16,0.00
2014-8-15,85.7,74.5,64.2,70.7,66.5,61.5,95,78,51,30.03,29.90,7,2,13,0.00
2014-8-16,86.3,75.5,66.8,73.9,69.9,65.9,97,84,61,29.97,29.87,4,1,9,0.00
2014-8-17,71.6,66.3,62.8,69.1,64.8,61.4,100,95,91,30.01,29.90,4,1,10,0.14
2014-8-18,83.5,71.3,64.4,71.0,66.4,63.5,100,86,56,29.90,29.69,8,1,12,0.01
2014-8-19,82.9,71.0,63.4,69.0,64.7,61.9,97,82,56,29.85,29.73,8,2,12,0.05
2014-8-20,82.2,71.8,62.2,69.7,66.2,61.6,100,84,63,29.92,29.84,6,1,10,0.00
2014-8-21,76.0,71.3,66.2,73.1,69.3,65.2,97,93,88,29.92,29.80,6,1,8,0.69
2014-8-22,79.2,72.2,68.2,70.7,69.0,66.7,100,90,74,30.07,29.91,6,1,8,0.00
2014-8-23,77.8,69.7,64.4,70.9,67.2,63.5,100,92,78,30.07,29.93,6,2,12,0.00
2014-8-24,73.3,72.7,71.9,71.5,71.0,70.2,96,94,93,29.93,29.83,6,2,13,0.07
2014-8-25,74.2,66.8,61.3,69.0,57.8,53.3,94,74,55,30.12,29.88,10,3,21,0.27
2014-8-26,73.1,62.4,52.1,59.6,53.6,48.0,92,74,52,30.25,30.11,7,1,10,0.01
2014-8-27,75.6,64.6,56.7,62.5,58.5,55.3,95,82,58,30.26,30.15,6,1,9,0.00
2014-8-28,74.6,65.6,59.6,65.6,62.1,57.2,100,89,72,30.16,29.92,5,1,13,0.13
2014-8-29,72.5,68.2,65.2,70.4,67.4,64.3,100,97,91,29.92,29.78,3,0,6,1.64
2014-8-30,73.0,67.7,64.6,69.5,66.3,64.6,100,95,84,29.92,29.83,5,0,10,0.22
2014-8-31,81.8,68.8,62.3,72.4,66.5,62.3,100,93,68,29.93,29.67,14,2,39,0.57
2014-9-1,76.8,68.2,60.2,66.4,61.2,56.1,100,81,50,29.87,29.67,9,3,18,0.06
2014-9-2,78.4,67.2,56.7,61.8,57.6,53.7,95,74,44,29.93,29.85,7,2,15,0.00
2014-9-3,67.7,64.7,62.0,66.5,61.7,58.0,97,90,81,29.89,29.72,10,3,25,0.34
2014-9-4,77.5,68.8,61.8,73.5,65.9,55.6,100,91,74,29.95,29.62,9,3,21,0.02
2014-9-5,67.2,64.2,54.3,55.4,50.9,48.0,88,63,52,30.19,29.95,8,5,16,0.00
2014-9-8,76.1,69.8,61.5,65.3,61.2,56.9,85,75,65,29.88,29.83,7,3,20,0.00
2014-9-9,70.6,64.6,56.7,67.4,61.9,54.7,94,91,85,29.90,29.82,8,1,20,0.01
2014-9-10,56.7,49.6,44.4,54.6,47.0,41.6,96,91,84,30.19,29.81,12,5,21,0.33
2014-9-11,55.5,48.8,43.1,45.7,42.6,39.6,95,80,56,30.43,30.18,6,1,12,0.00
2014-9-12,53.7,46.3,41.3,41.4,38.8,33.3,92,77,48,30.48,30.37,6,1,13,0.00
2014-9-13,61.7,50.4,39.7,45.5,41.3,36.5,94,73,49,30.37,30.12,10,2,18,0.00
2014-9-14,62.3,53.8,46.4,46.6,45.2,42.9,91,74,53,30.19,30.09,9,3,16,0.00
2014-9-15,62.7,53.1,46.1,46.4,43.3,37.6,93,72,42,30.26,30.17,7,1,17,0.00
2014-9-16,70.1,57.1,45.8,52.3,45.3,40.0,88,67,43,30.23,30.01,6,2,12,0.00
2014-9-17,76.0,62.1,51.6,58.4,53.6,48.8,94,76,49,30.07,29.96,5,1,10,0.00
2014-9-18,74.6,57.9,46.0,60.9,52.1,44.7,96,83,58,30.13,29.96,7,2,13,0.00
2014-9-19,69.3,62.7,60.0,67.1,59.8,53.0,100,90,75,29.96,29.67,8,3,20,0.02
2014-9-20,75.6,64.1,56.2,66.3,58.1,51.5,94,82,53,29.93,29.68,16,5,39,0.32
2014-9-21,66.8,57.5,51.1,54.0,51.2,48.6,92,80,59,30.27,29.92,8,4,18,0.00
2014-9-22,74.5,59.2,47.2,56.1,51.7,46.1,97,79,48,30.28,30.16,6,1,12,0.00
2014-9-23,74.6,62.0,50.7,58.9,54.0,48.9,95,77,54,30.21,30.13,8,2,16,0.02
2014-9-24,66.6,61.1,57.3,59.1,56.9,53.9,93,86,75,30.17,30.13,9,2,17,0.01
2014-9-25,80.4,65.5,54.9,67.9,61.2,54.1,100,87,64,30.22,30.15,5,1,10,0.01
2014-9-26,79.9,67.7,57.0,64.1,60.6,56.0,97,80,56,30.20,30.11,8,1,16,0.00
2014-9-27,82.8,70.9,62.7,65.4,61.8,59.5,90,74,50,30.15,30.09,8,2,15,0.00
2014-9-28,82.9,69.7,59.5,64.8,61.3,57.7,95,77,48,30.15,30.05,7,1,15,0.00
2014-9-29,61.0,53.5,43.1,57.7,49.8,40.7,96,88,77,30.20,30.10,7,3,15,0.13
2014-9-30,58.4,48.8,40.5,48.8,44.2,39.2,97,85,67,30.15,29.84,7,2,16,0.00
2014-10-1,59.8,54.7,51.9,56.2,52.2,48.5,100,91,86,29.88,29.78,7,2,15,0.00
2014-10-2,56.9,53.5,48.9,56.1,52.6,48.9,100,97,88,29.91,29.78,7,1,12,0.20
2014-10-3,52.3,43.7,38.5,49.0,35.9,29.2,92,75,55,29.89,29.78,15,10,32,0.06
2014-10-4,48.2,41.9,36.4,34.6,32.2,30.0,82,69,53,29.86,29.73,14,7,26,0.00
2014-10-5,49.1,42.1,35.2,39.0,34.2,30.0,89,74,58,29.73,29.59,12,4,20,0.00
2014-10-6,62.4,48.0,34.6,45.0,38.2,32.3,92,71,47,29.59,29.44,14,5,26,0.00
2014-10-7,57.8,50.8,45.8,43.7,37.3,29.9,84,61,37,29.90,29.52,15,5,33,0.00
2014-10-8,56.2,47.4,39.7,38.2,34.0,30.2,83,61,41,30.14,29.90,12,4,22,0.00
2014-10-9,55.6,43.5,34.1,37.7,33.8,30.3,88,70,48,30.27,30.14,8,2,14,0.00
2014-10-10,54.2,43.6,33.4,37.9,34.2,31.6,94,72,44,30.31,30.23,7,2,12,0.00
2014-10-11,59.2,46.4,35.2,38.4,35.0,32.0,95,67,41,30.25,29.97,7,2,20,0.00
2014-10-12,64.9,51.9,41.3,47.4,40.4,35.3,86,67,39,29.96,29.73,8,4,33,0.00
2014-10-13,53.5,51.3,48.4,51.5,49.3,46.4,97,93,84,29.91,29.78,6,2,15,0.09
2014-10-14,65.0,52.9,44.2,48.3,43.1,39.9,97,73,41,30.05,29.89,10,3,21,0.01
2014-10-15,69.4,53.1,40.1,45.3,40.5,37.6,92,66,34,30.08,29.89,3,0,6,0.00
2014-10-16,71.8,55.8,42.0,50.6,44.0,37.9,87,67,42,29.89,29.60,12,4,22,0.00
2014-10-17,55.5,51.7,48.3,48.7,44.6,41.3,84,77,65,30.13,29.65,13,6,24,0.00
2014-10-18,49.4,44.2,40.1,42.0,39.5,38.0,94,84,71,30.27,30.08,5,1,9,0.00
2014-10-19,69.9,54.9,40.0,49.1,44.0,37.8,93,69,44,30.08,29.81,12,5,18,0.00
2014-10-20,64.8,54.0,44.2,46.8,42.9,39.7,87,68,42,30.13,29.94,8,2,14,0.00
2014-10-21,60.8,48.2,37.7,45.0,41.0,36.3,95,78,53,30.21,30.11,7,2,17,0.00
2014-10-22,63.6,52.7,43.5,50.0,44.0,39.2,85,73,56,30.16,29.99,12,5,24,0.00
2014-10-23,70.8,56.9,50.6,53.9,48.4,39.9,100,77,35,30.03,29.96,6,1,12,0.03
2014-10-24,73.3,59.6,47.7,53.9,46.5,43.1,84,64,36,29.97,29.85,9,2,17,0.00
2014-10-25,62.1,54.1,44.0,43.4,34.7,26.3,73,50,27,30.10,29.94,10,4,20,0.00
2014-10-26,65.0,51.0,38.0,37.7,33.7,28.5,92,57,26,30.08,29.66,8,2,20,0.00
2014-10-27,57.8,48.5,42.5,48.4,40.2,34.3,95,74,53,29.75,29.61,7,2,14,0.10
2014-10-28,44.3,41.2,37.9,42.1,36.5,31.0,96,83,74,30.02,29.73,15,7,30,0.01
2014-10-29,41.4,38.0,35.7,34.4,32.7,31.1,88,81,76,30.19,30.02,10,3,20,0.00
2014-10-30,44.1,38.8,30.8,40.4,33.7,17.8,95,83,56,30.44,30.05,14,3,26,0.07
2014-10-31,40.4,31.2,24.0,26.1,21.5,18.4,82,68,47,30.59,30.44,7,1,13,0.00
2014-11-1,45.5,35.3,27.5,27.5,23.5,20.0,76,63,44,30.46,30.13,9,4,26,0.00
2014-11-2,56.1,45.1,36.2,36.4,31.0,25.1,71,58,42,30.13,29.86,9,4,18,0.00
2014-11-3,48.5,44.7,40.3,44.5,40.1,35.8,92,84,71,29.89,29.77,9,2,20,0.08
2014-11-4,46.4,40.7,33.8,38.3,33.8,29.8,91,77,67,30.03,29.89,14,5,24,0.00
2014-11-5,39.7,36.7,33.7,38.4,34.3,29.8,96,91,82,30.12,29.92,7,2,14,0.31
2014-11-6,41.3,35.3,31.2,35.6,32.2,28.9,96,88,78,30.33,30.11,7,3,15,0.00
2014-11-7,47.4,39.1,31.4,44.0,34.8,30.3,96,85,75,30.19,29.68,15,5,31,0.02
2014-11-8,40.6,37.1,32.6,32.7,28.1,23.7,83,70,52,30.08,29.82,16,6,30,0.00
2014-11-9,37.7,33.3,29.0,33.3,21.7,11.9,89,64,40,29.85,29.76,8,2,16,0.00
2014-11-10,29.1,24.5,22.3,24.2,21.8,16.5,95,90,59,30.03,29.76,12,6,25,0.00
2014-11-11,22.9,20.6,16.4,21.4,18.9,14.2,94,93,91,30.27,30.03,10,5,22,0.00
2014-11-12,26.9,20.9,14.9,22.4,18.2,13.0,93,89,81,30.36,30.27,8,3,13,0.00
2014-11-13,24.8,19.2,12.5,19.7,14.7,9.4,91,83,72,30.41,30.36,10,5,18,0.00
2014-11-14,21.4,12.4,6.0,13.6,8.5,3.7,91,84,70,30.39,30.30,7,1,12,0.01
2014-11-15,22.9,16.3,6.8,19.1,13.5,3.8,92,88,84,30.31,30.10,5,1,8,0.00
2014-11-16,19.1,11.9,2.4,16.7,7.3,-1.1,90,81,69,30.09,29.83,12,4,21,0.00
2014-11-17,18.2,11.9,8.2,10.2,5.9,3.5,87,76,68,30.03,29.92,14,7,25,0.00
2014-11-18,17.3,13.6,7.7,14.4,8.6,3.4,89,80,68,30.02,29.73,7,4,14,0.00
2014-11-19,25.8,20.5,14.4,19.2,14.7,9.7,89,78,64,29.99,29.72,16,7,26,0.00
2014-11-20,19.3,12.3,4.6,9.7,4.7,0.6,88,71,59,30.23,29.99,8,4,16,0.00
2014-11-21,30.9,20.5,4.0,27.8,16.3,1.0,88,84,74,30.23,29.81,12,5,22,0.00
2014-11-22,36.8,32.4,26.4,36.8,30.6,24.9,100,93,82,29.82,29.48,9,4,20,0.13
2014-11-23,41.3,37.7,31.0,39.5,35.3,26.7,100,91,80,29.52,29.43,10,3,20,0.10
2014-11-24,31.0,18.1,13.0,27.1,14.1,9.0,88,84,78,29.96,29.42,14,8,28,0.00
2014-11-25,22.9,16.4,9.6,17.7,11.3,6.5,88,80,68,30.06,29.96,7,1,9,0.00
2014-11-26,24.7,19.8,2.8,19.5,13.7,-3.3,91,77,57,30.45,30.02,8,3,15,0.00
2014-11-27,10.2,3.6,-4.6,3.2,-2.8,-8.4,85,74,58,30.51,30.21,6,2,12,0.00
2014-11-28,21.0,14.9,6.4,17.4,11.4,2.9,90,86,79,30.21,29.66,5,1,12,0.00
2014-11-29,36.1,25.9,16.6,29.3,22.2,10.9,93,86,75,29.75,29.44,10,2,24,0.08
2014-11-30,16.6,9.4,5.3,10.8,1.4,-1.6,78,70,58,30.46,29.75,12,7,20,0.00
2014-12-1,6.1,0.9,-4.5,-1.4,-8.6,-11.8,73,64,50,30.72,30.28,13,4,23,0.00
2014-12-2,22.7,16.3,5.3,16.4,9.9,-2.0,83,75,71,30.28,29.93,9,5,20,0.00
2014-12-3,20.5,15.5,8.9,11.4,9.4,5.6,88,77,65,30.30,30.00,13,4,20,0.00
2014-12-4,32.3,23.5,14.5,21.3,15.3,10.4,87,72,47,30.30,30.07,9,3,20,0.00
2014-12-5,37.1,29.6,24.4,30.0,25.7,18.2,94,86,72,30.45,30.05,6,1,13,0.01
2014-12-6,30.2,23.0,14.2,21.1,16.4,11.7,90,76,54,30.65,30.45,5,1,10,0.00
2014-12-7,33.5,30.1,25.1,32.7,27.1,21.0,97,89,81,30.49,30.00,9,5,20,0.00
2014-12-8,35.1,26.5,17.8,34.8,23.1,13.4,100,87,79,30.37,29.98,13,6,30,0.05
2014-12-9,21.5,19.6,16.8,19.3,16.9,12.8,94,89,82,30.48,30.37,5,1,9,0.00
2014-12-10,28.9,25.9,20.4,27.2,24.5,18.9,95,94,93,30.40,30.24,7,2,15,0.00
2014-12-11,32.5,29.7,27.3,31.7,28.8,26.3,97,96,95,30.26,30.17,7,3,13,0.00
2014-12-12,36.3,33.7,32.4,36.3,32.9,31.6,100,97,94,30.19,30.05,8,3,16,0.03
2014-12-13,42.9,39.6,36.5,42.9,39.6,36.3,100,100,100,30.05,29.91,6,1,13,0.03
2014-12-14,48.0,44.9,41.6,48.0,44.9,41.6,100,100,100,29.92,29.81,7,2,10,0.03
2014-12-15,41.6,33.9,22.8,41.4,33.4,21.3,100,98,94,30.00,29.76,12,5,23,0.26
2014-12-16,22.8,17.1,9.6,21.3,14.6,7.1,94,90,88,30.30,30.00,12,5,23,0.00
2014-12-17,19.4,12.5,8.3,14.5,9.5,6.0,92,88,80,30.34,30.29,6,1,10,0.00
2014-12-18,21.7,15.7,8.4,17.6,12.8,6.1,91,88,80,30.33,30.25,5,1,12,0.00
2014-12-19,30.6,25.3,20.4,29.6,23.8,17.6,96,94,89,30.26,30.12,5,2,10,0.00
2014-12-20,31.3,30.6,29.5,30.4,29.1,28.0,97,94,91,30.13,30.04,8,4,17,0.00
2014-12-21,36.3,33.5,30.3,36.3,33.3,29.0,100,99,95,30.04,29.69,8,3,15,0.06
2014-12-22,37.2,35.8,34.3,37.2,35.8,34.3,100,100,100,29.70,29.60,6,2,15,0.17
2014-12-23,36.6,35.4,34.6,34.8,33.9,32.9,100,94,91,29.94,29.70,8,4,18,0.00
2014-12-24,35.2,33.2,30.5,33.6,31.6,28.8,96,94,91,29.93,29.59,7,3,12,0.00
2014-12-25,34.4,31.8,29.9,31.6,29.8,28.1,96,92,89,29.93,29.59,7,2,14,0.00
2014-12-26,30.6,28.4,24.1,29.2,25.5,20.5,96,89,82,30.14,29.91,6,3,17,0.03
2014-12-27,24.2,21.2,15.8,20.4,15.9,10.0,87,80,57,30.12,30.07,7,3,14,0.00
2014-12-28,23.3,17.1,8.3,18.9,11.2,2.3,92,78,54,30.40,30.06,7,1,12,0.00
2014-12-29,8.8,4.2,-0.7,2.5,-2.8,-7.0,84,73,57,30.69,30.40,7,2,12,0.00
2014-12-30,4.8,-0.9,-4.0,-4.0,-6.7,-8.4,83,76,63,30.75,30.53,9,3,16,0.00
2014-12-31,17.4,8.1,-3.1,13.0,2.2,-7.2,86,77,64,30.52,29.92,13,6,22,0.00
2015-1-1,30.8,21.7,10.2,24.6,15.5,1.2,86,77,56,30.17,29.82,9,4,18,0.00
2015-1-2,30.5,20.5,7.1,24.8,15.4,1.4,91,80,68,30.19,29.96,10,3,17,0.00